Keokuk, IA

12:50 AM CST on November 18, 2017 (GMT -0600)
Keokuk Municipal

Weather History for KEOK - May, 2013

Change the Weather History Date:

Tuesday, May 21, 2013

  Actual Average Record
Temperature  
Mean Temperature 71 °F -  
Max Temperature 78 °F 76 °F 92 °F (1956)
Min Temperature 64 °F 54 °F 37 °F (2002)
Cooling Degree Days 6    
Growing Degree Days 21 (Base 50)    
Moisture  
Dew Point 57 °F    
Average Humidity 62    
Maximum Humidity 77    
Minimum Humidity 44    
Precipitation  
Precipitation 0.00 in - - ()
Sea Level Pressure  
Sea Level Pressure 29.70 in    
Wind  
Wind Speed 10 mph (SW)    
Max Wind Speed 18 mph    
Max Gust Speed 23 mph    
Visibility 10 miles    
Events      
Averages and records for this station are not official NWS values.
T = Trace of Precipitation, MM = Missing Value Source: NWS Daily Summary

Daily Weather History Graph

Daily Weather History Graph

Search for Another Location

Airport or City:

Trip Planner

Search our weather history database for the weather conditions in past years. The results will help you decide how hot, cold, wet, or windy it might be!

Date:

Astronomy

May. 21, 2013 Rise Set
Actual Time 5:43 AM CDT 8:21 PM CDT
Civil Twilight 5:12 AM CDT 8:52 PM CDT
Nautical Twilight 4:33 AM CDT 9:32 PM CDT
Astronomical Twilight 3:48 AM CDT 10:16 PM CDT
Moon 4:34 PM CDT (5/21) 3:12 AM CDT (5/21)
Length of Visible Light 15h 40m
Length of Day
14h 37m
Waxing Gibbous, 84% of the Moon is Illuminated
May 21
Waxing Gibbous
May 24
Full
May 31
Last Quarter
Jun 8
New
Jun 16
First Quarter

Hourly Weather History & Observations

Time (CDT) Temp. Dew Point Humidity Pressure Visibility Wind Dir Wind Speed Gust Speed Precip Events Conditions
12:15 AM 66.2 °F 57.2 °F 73% 29.70 in 10.0 mi South 11.5 mph 16.1 mph N/A   Scattered Clouds
12:35 AM 66.2 °F 57.2 °F 73% 29.70 in 10.0 mi South 11.5 mph - N/A   Scattered Clouds
12:55 AM 66.2 °F 57.2 °F 73% 29.70 in 10.0 mi South 11.5 mph - N/A   Clear
1:15 AM 66.2 °F 57.2 °F 73% 29.70 in 10.0 mi SSW 9.2 mph - N/A   Clear
1:35 AM 66.2 °F 57.2 °F 73% 29.70 in 10.0 mi SSW 6.9 mph - N/A   Clear
1:55 AM 66.2 °F 57.2 °F 73% 29.70 in 10.0 mi South 3.5 mph - N/A   Clear
2:15 AM 64.4 °F 57.2 °F 77% 29.69 in 10.0 mi Calm Calm - N/A   Clear
2:35 AM 64.4 °F 57.2 °F 77% 29.68 in 10.0 mi South 5.8 mph - N/A   Clear
2:55 AM 64.4 °F 57.2 °F 77% 29.68 in 10.0 mi South 8.1 mph - N/A   Clear
3:15 AM 64.4 °F 57.2 °F 77% 29.67 in 10.0 mi South 6.9 mph - N/A   Clear
3:35 AM 64.4 °F 57.2 °F 77% 29.67 in 10.0 mi South 8.1 mph - N/A   Clear
3:55 AM 64.4 °F 57.2 °F 77% 29.67 in 10.0 mi South 9.2 mph - N/A   Clear
4:15 AM 64.4 °F 57.2 °F 77% 29.67 in 10.0 mi South 9.2 mph - N/A   Clear
4:35 AM 64.4 °F 57.2 °F 77% 29.67 in 10.0 mi South 10.4 mph - N/A   Clear
4:55 AM 64.4 °F 57.2 °F 77% 29.68 in 10.0 mi SSW 9.2 mph - N/A   Clear
5:15 AM 64.4 °F 57.2 °F 77% 29.69 in 10.0 mi SSW 10.4 mph 18.4 mph N/A   Clear
5:35 AM 64.4 °F 57.2 °F 77% 29.69 in 10.0 mi SSW 10.4 mph - N/A   Clear
5:55 AM 64.4 °F 57.2 °F 77% 29.69 in 10.0 mi SSW 9.2 mph - N/A   Clear
6:15 AM 64.4 °F 57.2 °F 77% 29.69 in 10.0 mi SSW 9.2 mph - N/A   Clear
6:35 AM 64.4 °F 57.2 °F 77% 29.69 in 10.0 mi SSW 9.2 mph - N/A   Clear
6:55 AM 64.4 °F 57.2 °F 77% 29.69 in 10.0 mi SSW 8.1 mph - N/A   Clear
7:15 AM 66.2 °F 57.2 °F 73% 29.69 in 10.0 mi SSW 8.1 mph - N/A   Clear
7:35 AM 66.2 °F 57.2 °F 73% 29.70 in 10.0 mi SSW 10.4 mph - N/A   Clear
7:55 AM 68.0 °F 59.0 °F 73% 29.70 in 10.0 mi SW 8.1 mph - N/A   Clear
8:15 AM 69.8 °F 59.0 °F 68% 29.71 in 10.0 mi SSW 11.5 mph - N/A   Scattered Clouds
8:35 AM 69.8 °F 59.0 °F 68% 29.71 in 10.0 mi SSW 15.0 mph 18.4 mph N/A   Scattered Clouds
8:55 AM 69.8 °F 57.2 °F 64% 29.72 in 10.0 mi SW 16.1 mph 23.0 mph N/A   Scattered Clouds
9:15 AM 71.6 °F 57.2 °F 60% 29.72 in 10.0 mi SW 15.0 mph 23.0 mph N/A   Scattered Clouds
9:35 AM 71.6 °F 57.2 °F 60% 29.72 in 10.0 mi SW 11.5 mph 16.1 mph N/A   Clear
9:55 AM 71.6 °F 57.2 °F 60% 29.72 in 10.0 mi WSW 16.1 mph 23.0 mph N/A   Scattered Clouds
10:15 AM 71.6 °F 57.2 °F 60% 29.71 in 10.0 mi WSW 13.8 mph - N/A   Scattered Clouds
10:35 AM 73.4 °F 55.4 °F 53% 29.71 in 10.0 mi WSW 18.4 mph 23.0 mph N/A   Scattered Clouds
10:55 AM 73.4 °F 57.2 °F 57% 29.72 in 10.0 mi SW 17.3 mph 23.0 mph N/A   Scattered Clouds
11:15 AM 73.4 °F 57.2 °F 57% 29.72 in 10.0 mi WSW 16.1 mph 20.7 mph N/A   Clear
11:35 AM 73.4 °F 57.2 °F 57% 29.72 in 10.0 mi SW 12.7 mph - N/A   Scattered Clouds
11:55 AM 75.2 °F 57.2 °F 53% 29.72 in 10.0 mi SW 13.8 mph 19.6 mph N/A   Scattered Clouds
12:15 PM 73.4 °F 55.4 °F 53% 29.72 in 10.0 mi SW 13.8 mph 20.7 mph N/A   Scattered Clouds
12:35 PM 75.2 °F 57.2 °F 53% 29.72 in 10.0 mi SW 16.1 mph - N/A   Clear
12:55 PM 75.2 °F 57.2 °F 53% 29.72 in 10.0 mi SW 12.7 mph 20.7 mph N/A   Clear
1:15 PM 75.2 °F 57.2 °F 53% 29.72 in 10.0 mi SW 15.0 mph 18.4 mph N/A   Clear
1:35 PM 77.0 °F 59.0 °F 54% 29.71 in 10.0 mi WSW 13.8 mph - N/A   Scattered Clouds
1:55 PM 77.0 °F 59.0 °F 54% 29.71 in 10.0 mi WSW 10.4 mph - N/A   Scattered Clouds
2:15 PM 77.0 °F 57.2 °F 50% 29.70 in 10.0 mi WSW 15.0 mph - N/A   Clear
2:35 PM 77.0 °F 57.2 °F 50% 29.70 in 10.0 mi SW 10.4 mph 16.1 mph N/A   Clear
2:55 PM 78.8 °F 59.0 °F 51% 29.70 in 10.0 mi SW 9.2 mph - N/A   Clear
3:15 PM 78.8 °F 57.2 °F 47% 29.70 in 10.0 mi WSW 12.7 mph 18.4 mph N/A   Clear
3:35 PM 78.8 °F 55.4 °F 44% 29.70 in 10.0 mi SW 17.3 mph - N/A   Scattered Clouds
3:55 PM 78.8 °F 55.4 °F 44% 29.69 in 10.0 mi SW 13.8 mph 18.4 mph N/A   Clear
4:15 PM 78.8 °F 55.4 °F 44% 29.69 in 10.0 mi SW 15.0 mph - N/A   Clear
4:35 PM 78.8 °F 55.4 °F 44% 29.69 in 10.0 mi WSW 10.4 mph 20.7 mph N/A   Clear
4:55 PM 78.8 °F 55.4 °F 44% 29.69 in 10.0 mi SW 13.8 mph 19.6 mph N/A   Clear
5:15 PM 78.8 °F 55.4 °F 44% 29.69 in 10.0 mi WSW 12.7 mph 18.4 mph N/A   Clear
5:35 PM 77.0 °F 55.4 °F 47% 29.68 in 10.0 mi WSW 13.8 mph - N/A   Clear
5:55 PM 77.0 °F 55.4 °F 47% 29.68 in 10.0 mi SW 10.4 mph - N/A   Clear
6:15 PM 77.0 °F 55.4 °F 47% 29.67 in 10.0 mi WSW 11.5 mph - N/A   Clear
6:35 PM 75.2 °F 55.4 °F 50% 29.68 in 10.0 mi WSW 13.8 mph 19.6 mph N/A   Clear
6:55 PM 75.2 °F 55.4 °F 50% 29.69 in 10.0 mi WSW 8.1 mph - N/A   Clear
7:15 PM 75.2 °F 55.4 °F 50% 29.69 in 10.0 mi SW 6.9 mph - N/A   Clear
7:35 PM 73.4 °F 55.4 °F 53% 29.69 in 10.0 mi SW 9.2 mph - N/A   Scattered Clouds
7:55 PM 73.4 °F 55.4 °F 53% 29.70 in 10.0 mi SW 6.9 mph - N/A   Clear
8:15 PM 71.6 °F 55.4 °F 57% 29.69 in 10.0 mi SSW 4.6 mph - N/A   Clear
8:35 PM 69.8 °F 55.4 °F 60% 29.68 in 10.0 mi Calm Calm - N/A   Clear
8:55 PM 69.8 °F 55.4 °F 60% 29.67 in 10.0 mi WSW 3.5 mph - N/A   Clear
9:15 PM 68.0 °F 55.4 °F 64% 29.68 in 10.0 mi Calm Calm - N/A   Clear
9:35 PM 68.0 °F 55.4 °F 64% 29.68 in 10.0 mi Calm Calm - N/A   Clear
9:55 PM 66.2 °F 55.4 °F 68% 29.68 in 10.0 mi Calm Calm - N/A   Clear
10:15 PM 66.2 °F 55.4 °F 68% 29.69 in 10.0 mi Calm Calm - N/A   Clear
10:35 PM 64.4 °F 55.4 °F 73% 29.69 in 10.0 mi SSW 3.5 mph - N/A   Clear
10:55 PM 64.4 °F 53.6 °F 68% 29.70 in 10.0 mi SSW 3.5 mph - N/A   Clear
11:15 PM 66.2 °F 55.4 °F 68% 29.70 in 10.0 mi SW 5.8 mph - N/A   Clear
11:35 PM 64.4 °F 55.4 °F 73% 29.69 in 10.0 mi SW 5.8 mph - N/A   Scattered Clouds
11:55 PM 66.2 °F 55.4 °F 68% 29.70 in 10.0 mi SW 5.8 mph - N/A   Mostly Cloudy